Powrót do katalogu

COSMOS 2251 DEB

AktywnyLEO
NORAD 33822·DEBRIS·🇷🇺 Russia

Wystrzelony Jun 16, 1993 z Plesetsk Cosmodrome

Loading…

Następne Przeloty (najbliższe 24 godziny)

TLE

ŚwieżeSource: Space-Track

Epoka: Sep 14, 2026, 21:54 UTC

1 33822U 93036BP  26257.91307275  .00001370  00000-0  65079-3 0  9996
2 33822  74.0657  65.4639 0152512  45.0398 105.9837 14.14422949899578

Śledź COSMOS 2251 DEB w czasie rzeczywistym z AllMySat

Download on the App Store